GW3649 Weather Reports


time (UTC)temp
C
wind
direction
speed
KPH
gust
KPH
rain 1hr
cm
rain 24hr
cm
rain mn
cm
humidity
%
barometer
mb
20260510120502 17 135 0.0 0.0 0.00 0.53 0.00 99 1017.5
20260510120007 17 135 0.0 0.0 0.00 0.58 0.00 99 1017.4
20260510115503 17 135 0.0 0.0 0.00 0.61 0.00 99 1017.2
20260510115003 17 135 0.0 0.0 0.00 0.66 0.00 99 1017.2
20260510114506 17 135 0.0 0.0 0.00 0.69 0.00 99 1017.2
20260510114004 17 135 0.0 0.0 0.00 0.71 0.00 99 1017.1
20260510113502 17 135 0.0 0.0 0.00 0.71 0.00 99 1017.0
20260510113013 16 135 0.0 0.0 0.00 0.76 0.00 99 1017.0
20260510112503 17 135 0.0 0.0 0.00 0.79 0.00 99 1017.0
20260510112003 16 135 0.0 0.0 0.00 0.81 0.00 99 1016.8
20260510111508 16 135 0.0 0.0 0.00 0.89 0.00 99 1016.7
20260510111002 17 135 0.0 0.0 0.00 1.04 0.00 99 1016.6
20260510110502 16 135 0.0 0.0 0.00 1.22 0.00 99 1016.5
20260510110014 16 135 0.0 0.0 0.00 1.42 0.00 99 1016.5
20260510105503 16 135 0.0 0.0 0.00 1.70 0.00 99 1016.5
20260510105006 16 135 0.0 0.0 0.00 2.01 0.00 99 1016.5
20260510104503 16 135 0.0 0.0 0.00 2.62 0.00 99 1016.4
20260510104003 16 135 0.0 0.0 0.00 3.10 0.00 99 1016.3
20260510103503 16 135 0.0 0.0 0.00 3.20 0.00 99 1016.1
20260510103008 16 135 0.0 0.0 0.00 3.20 0.00 99 1016.0
20260510102505 16 135 0.0 0.0 0.00 3.20 0.00 99 1016.0
20260510102006 16 135 0.0 0.0 0.00 3.20 0.00 99 1016.0
20260510101510 16 135 0.0 0.0 0.00 3.20 0.00 99 1016.0
20260510101002 16 135 0.0 0.0 0.00 3.20 0.00 99 1016.0
20260510100505 16 135 0.0 0.0 0.00 3.20 0.00 99 1015.9
20260510100012 16 135 0.0 0.0 0.00 3.20 0.00 99 1015.8
20260510095504 16 135 0.0 0.0 0.00 3.20 0.00 99 1015.8
20260510095004 16 135 0.0 0.0 0.00 3.20 0.00 99 1015.7
20260510094517 16 135 0.0 0.0 0.00 3.20 0.00 99 1015.7
20260510094003 16 135 0.0 0.0 0.00 3.20 0.00 99 1015.6
20260510093503 16 135 0.0 0.0 0.00 3.20 0.00 99 1015.6
20260510093006 16 135 0.0 0.0 0.00 3.20 0.00 99 1015.6
20260510092504 16 135 0.0 0.0 0.00 3.20 0.00 99 1015.6
20260510092004 16 135 0.0 0.0 0.00 3.20 0.00 99 1015.6
20260510091507 16 135 0.0 0.0 0.00 3.20 0.00 99 1015.6
20260510091003 16 135 0.0 0.0 0.00 3.20 0.00 99 1015.5
20260510090503 16 135 0.0 0.0 0.00 3.20 0.00 99 1015.6
20260510090018 16 135 0.0 0.0 0.00 3.20 0.00 99 1015.5
20260510085506 16 135 0.0 0.0 0.00 3.20 0.00 99 1015.5
20260510085004 16 135 0.0 0.0 0.00 3.20 0.00 99 1015.5
20260510084516 16 135 0.0 0.0 0.00 3.20 0.00 99 1015.5
20260510084006 16 135 0.0 0.0 0.00 3.20 0.00 99 1015.5
20260510083508 16 135 0.0 0.0 0.00 3.20 0.00 99 1015.6
20260510083016 16 135 0.0 0.0 0.00 3.20 0.00 99 1015.4
20260510082506 16 135 0.0 0.0 0.00 3.20 0.00 99 1015.5
20260510082007 16 135 0.0 0.0 0.00 3.23 0.00 99 1015.4
20260510081534 16 135 0.0 0.0 0.00 3.23 0.00 99 1015.2
20260510081004 16 135 0.0 0.0 0.00 3.23 0.00 99 1015.1
20260510080504 16 135 0.0 0.0 0.00 3.23 0.00 99 1015.1
20260510080011 16 135 0.0 0.0 0.00 3.23 0.00 99 1015.1
20260510075503 16 135 0.0 0.0 0.00 3.23 0.00 99 1015.0
20260510075003 16 135 0.0 0.0 0.00 3.23 0.00 99 1015.0
20260510074518 16 135 0.0 0.0 0.00 3.23 0.00 99 1014.9
20260510074009 16 135 0.0 0.0 0.00 3.23 0.00 99 1014.9
20260510073511 16 135 0.0 0.0 0.00 3.23 0.00 99 1014.8
20260510073017 16 135 0.0 0.0 0.00 3.23 0.00 99 1014.8
20260510072507 16 135 0.0 0.0 0.00 3.23 0.00 99 1014.8
20260510072007 16 135 0.0 0.0 0.00 3.23 0.00 99 1014.8
20260510071520 16 135 0.0 0.0 0.00 3.23 0.00 99 1014.7
20260510071007 16 135 0.0 0.0 0.00 3.23 0.00 99 1014.7
20260510070508 16 135 0.0 0.0 0.00 3.23 0.00 99 1014.7
20260510070023 16 135 0.0 0.0 0.00 3.23 0.00 99 1014.6
20260510065504 16 135 0.0 0.0 0.00 3.23 0.00 99 1014.7
20260510065004 16 135 0.0 0.0 0.00 3.23 0.00 99 1014.6
20260510064511 16 135 0.0 0.0 0.00 3.23 0.00 99 1014.6
20260510064003 16 135 0.0 0.0 0.00 3.23 0.00 98 1014.6
20260510063505 16 135 0.0 0.0 0.00 3.23 0.00 98 1014.5
20260510063027 16 135 0.0 0.0 0.00 3.23 0.00 98 1014.5
20260510062507 16 135 0.0 0.0 0.00 3.23 0.00 98 1014.4
20260510062011 16 135 0.0 0.0 0.00 3.23 0.00 99 1014.5
20260510061524 16 135 0.0 0.0 0.00 3.23 0.00 98 1014.5
20260510061008 16 135 0.0 0.0 0.00 3.23 0.00 98 1014.5
20260510060508 16 135 0.0 0.0 0.00 3.23 0.00 98 1014.5
20260510060035 16 135 0.0 0.0 0.00 3.23 0.00 98 1014.4
20260510055506 16 135 0.0 0.0 0.00 3.23 0.00 98 1014.5
20260510055007 16 135 0.0 0.0 0.00 3.23 0.00 98 1014.5
20260510054523 17 135 0.0 0.0 0.00 3.23 0.00 98 1014.5
20260510054012 17 135 0.0 0.0 0.00 3.23 0.00 98 1014.6
20260510053505 17 135 0.0 0.0 0.00 3.23 0.00 98 1014.6
20260510053027 17 135 0.0 0.0 0.00 3.23 0.00 98 1014.6
20260510052506 17 135 0.0 0.0 0.00 3.23 0.00 98 1014.6
20260510052010 17 135 0.0 0.0 0.00 3.23 0.00 98 1014.6
20260510051523 17 135 0.0 0.0 0.00 3.23 0.00 98 1014.6
20260510051007 17 135 0.0 0.0 0.00 3.23 0.00 98 1014.5
20260510050508 17 135 0.0 0.0 0.00 3.23 0.00 98 1014.6
20260510050023 17 135 0.0 0.0 0.00 3.23 0.00 98 1014.7
20260510045508 17 135 0.0 0.0 0.00 3.23 3.23 98 1014.8
20260510045010 17 135 0.0 0.0 0.00 3.23 3.23 98 1014.8
20260510044542 17 135 0.0 0.0 0.00 3.23 3.23 98 1014.8
20260510044008 17 135 0.0 0.0 0.00 3.23 3.23 98 1014.8
20260510043507 17 135 0.0 0.0 0.00 3.23 3.23 98 1014.8
20260510043024 17 135 0.0 0.0 0.00 3.23 3.23 98 1014.9
20260510042509 17 135 0.0 0.0 0.00 3.23 3.23 98 1015.0
20260510042007 17 135 0.0 0.0 0.00 3.23 3.23 98 1015.0
20260510041516 17 135 0.0 1.6 0.00 3.23 3.23 98 1014.9
20260510041005 17 135 0.0 1.6 0.00 3.23 3.23 98 1015.0
20260510040510 17 135 0.0 1.6 0.00 3.23 3.23 98 1015.4
20260510040034 17 135 0.0 1.6 0.00 3.23 3.23 98 1015.4
20260510035503 17 135 0.0 1.6 0.00 3.23 3.23 98 1015.4
20260510035006 17 135 0.0 0.0 0.00 3.23 3.23 98 1015.4
20260510034504 17 135 0.0 0.0 0.00 3.23 3.23 97 1015.4
20260510034004 17 135 0.0 0.0 0.00 3.23 3.23 97 1015.4
20260510033504 17 135 0.0 0.0 0.00 3.23 3.23 97 1015.4
20260510033007 17 135 0.0 0.0 0.00 3.23 3.23 97 1015.2
20260510032503 17 135 0.0 0.0 0.00 3.23 3.23 97 1015.1
20260510032005 17 135 0.0 0.0 0.00 3.23 3.23 97 1015.1
20260510031514 17 135 0.0 0.0 0.00 3.23 3.23 97 1015.1
20260510031006 17 135 0.0 1.6 0.00 3.23 3.23 97 1015.2
20260510030510 18 135 0.0 1.6 0.00 3.23 3.23 96 1015.3
20260510030021 18 135 0.0 0.0 0.00 3.23 3.23 97 1015.2
20260510025508 18 135 0.0 0.0 0.00 3.23 3.23 97 1015.4
20260510025005 18 135 0.0 0.0 0.00 3.23 3.23 96 1015.5
20260510024503 18 135 0.0 0.0 0.00 3.23 3.23 96 1015.3
20260510024002 18 135 0.0 0.0 0.00 3.23 3.23 96 1015.2
20260510023503 18 135 0.0 0.0 0.00 3.23 3.23 96 1015.0
20260510023006 18 135 0.0 0.0 0.00 3.23 3.23 95 1015.0
20260510022503 18 135 0.0 0.0 0.00 3.23 3.23 95 1015.0
20260510022003 18 135 0.0 1.6 0.00 3.23 3.23 95 1015.0
20260510021510 18 135 0.0 1.6 0.00 3.23 3.23 95 1015.0
20260510021003 18 135 0.0 3.2 0.00 3.23 3.23 95 1015.0
20260510020503 18 135 1.6 3.2 0.00 3.23 3.23 95 1014.8
20260510020021 18 135 0.0 1.6 0.00 3.23 3.23 95 1014.9
20260510015507 18 135 0.0 1.6 0.00 3.23 3.23 95 1015.0
20260510015009 18 135 0.0 0.0 0.00 3.23 3.23 95 1015.0
20260510014518 18 135 0.0 1.6 0.00 3.23 3.23 95 1015.0
20260510014005 18 135 0.0 3.2 0.00 3.23 3.23 95 1014.7
20260510013506 18 135 0.0 3.2 0.00 3.23 3.23 94 1014.6
20260510013022 18 135 0.0 3.2 0.00 3.23 3.23 94 1014.4
20260510012503 18 135 1.6 3.2 0.00 3.23 3.23 94 1014.1
20260510012003 18 135 1.6 3.2 0.00 3.23 3.23 94 1014.1
20260510011514 19 135 0.0 3.2 0.00 3.23 3.23 94 1014.2
20260510011003 19 135 0.0 3.2 0.00 3.23 3.23 94 1014.2
20260510010502 19 135 0.0 6.4 0.00 3.23 3.23 94 1014.2
20260510010015 19 135 1.6 6.4 0.00 3.23 3.23 93 1014.2
20260510005506 19 135 1.6 4.8 0.00 3.23 3.23 93 1014.1
20260510005004 19 135 0.0 4.8 0.00 3.23 3.23 93 1014.0
20260510004518 19 135 1.6 3.2 0.00 3.23 3.23 93 1013.9
20260510004004 19 135 0.0 1.6 0.00 3.23 3.23 93 1014.1
20260510003509 19 135 0.0 4.8 0.00 3.23 3.23 93 1014.1
20260510003025 19 135 0.0 4.8 0.00 3.23 3.23 93 1013.9
20260510002507 20 135 0.0 1.6 0.00 3.23 3.23 94 1014.0
20260510002009 20 135 0.0 3.2 0.00 3.23 3.23 94 1013.7
20260510001527 20 135 0.0 3.2 0.00 3.23 3.23 94 1013.7
20260510001003 20 135 0.0 1.6 0.00 3.23 3.23 94 1013.8
20260510000504 20 135 0.0 0.0 0.00 3.23 3.23 94 1013.7
20260510000017 20 135 0.0 0.0 0.00 3.23 3.23 94 1013.6
20260509235504 20 135 0.0 3.2 0.00 3.23 3.23 94 1013.5
20260509235004 20 135 0.0 3.2 0.00 3.23 3.23 94 1013.4
20260509234524 20 135 1.6 3.2 0.00 3.23 3.23 94 1013.3
20260509234006 20 135 0.0 1.6 0.00 3.23 3.23 94 1013.3
20260509233506 20 135 0.0 6.4 0.00 3.23 3.23 94 1013.4
20260509233020 20 135 0.0 6.4 0.00 3.23 3.23 94 1013.2
20260509232510 20 135 4.8 6.4 0.00 3.23 3.23 93 1013.0
20260509232011 20 135 1.6 4.8 0.00 3.23 3.23 93 1013.2
20260509231524 20 135 1.6 4.8 0.00 3.23 3.23 93 1013.1
20260509231008 20 135 3.2 4.8 0.00 3.23 3.23 93 1013.1
20260509230507 20 135 1.6 6.4 0.00 3.23 3.23 92 1013.1
20260509230027 20 135 3.2 6.4 0.00 3.23 3.23 92 1013.0
20260509225508 20 135 1.6 4.8 0.00 3.23 3.23 92 1013.2
20260509225005 20 135 3.2 4.8 0.00 3.23 3.23 93 1013.2
20260509224511 20 135 1.6 4.8 0.00 3.23 3.23 92 1013.1
20260509224004 20 135 3.2 4.8 0.00 3.23 3.23 92 1012.8
20260509223504 20 135 1.6 3.2 0.00 3.23 3.23 92 1012.8
20260509223017 20 135 0.0 3.2 0.00 3.23 3.23 92 1012.9
20260509222505 20 135 0.0 4.8 0.00 3.23 3.23 92 1012.9
20260509222007 20 135 0.0 6.4 0.00 3.23 3.23 92 1012.9
20260509221520 20 135 3.2 6.4 0.00 3.23 3.23 91 1012.7
20260509221007 20 135 1.6 3.2 0.00 3.23 3.23 91 1012.6
20260509220508 20 135 1.6 4.8 0.00 3.23 3.23 90 1012.7
20260509220024 20 135 1.6 4.8 0.00 3.23 3.23 90 1012.6
20260509215510 20 135 0.0 4.8 0.00 3.23 3.23 90 1012.6
20260509215007 20 135 3.2 4.8 0.00 3.23 3.23 90 1012.3
20260509214528 20 135 1.6 4.8 0.00 3.23 3.23 91 1012.4
20260509214008 21 135 0.0 4.8 0.00 3.23 3.23 91 1012.4
20260509213504 21 135 3.2 4.8 0.00 3.23 3.23 91 1012.3
20260509213016 21 135 3.2 4.8 0.00 3.23 3.23 91 1012.3
20260509212503 21 135 0.0 4.8 0.00 3.23 3.23 91 1012.4
20260509212010 21 135 3.2 6.4 0.00 3.23 3.23 90 1012.3
20260509211520 21 135 3.2 6.4 0.00 3.23 3.23 89 1012.2
20260509211008 21 135 3.2 6.4 0.00 3.23 3.23 89 1012.2
20260509210510 21 135 3.2 4.8 0.00 3.38 3.23 89 1012.2
20260509210026 21 135 1.6 4.8 0.00 3.38 3.23 88 1012.2
20260509205509 21 135 1.6 4.8 0.00 3.38 3.23 88 1012.3
20260509205009 21 135 1.6 4.8 0.00 3.38 3.23 88 1012.5
20260509204525 21 135 0.0 4.8 0.00 3.38 3.23 88 1012.6
20260509204009 21 135 0.0 4.8 0.00 3.38 3.23 88 1012.6
20260509203508 21 135 1.6 6.4 0.00 3.38 3.23 89 1012.5
20260509203029 21 135 0.0 6.4 0.00 3.38 3.23 89 1012.6
20260509202508 21 135 1.6 4.8 0.00 3.38 3.23 89 1012.6
20260509202010 21 135 0.0 1.6 0.00 3.38 3.23 89 1012.7
20260509201518 21 135 0.0 1.6 0.00 3.40 3.23 90 1012.8
20260509201007 21 135 0.0 1.6 0.00 3.40 3.23 89 1012.7
20260509200508 21 135 0.0 4.8 0.00 3.40 3.23 89 1012.8
20260509200022 21 135 1.6 4.8 0.00 3.40 3.23 88 1012.7
20260509195508 21 135 1.6 8.0 0.00 3.40 3.23 87 1012.7
20260509195007 21 135 0.0 8.0 0.00 3.40 3.23 87 1012.8
20260509194525 21 135 1.6 6.4 0.00 3.40 3.23 88 1012.8
20260509194009 21 135 0.0 6.4 0.00 3.40 3.23 88 1012.9
20260509193513 21 135 0.0 6.4 0.00 3.40 3.23 88 1013.0
20260509193035 21 135 3.2 6.4 0.00 3.40 3.23 88 1012.9
20260509192508 21 135 3.2 6.4 0.00 3.43 3.23 88 1012.9
20260509192008 21 135 0.0 4.8 0.00 3.43 3.23 88 1013.1
20260509191526 21 135 3.2 4.8 0.00 3.43 3.23 87 1013.2
20260509191009 21 135 1.6 4.8 0.00 3.43 3.23 87 1013.3
20260509190509 21 135 1.6 4.8 0.00 3.43 3.23 88 1013.2
20260509190022 21 135 3.2 6.4 0.00 3.43 3.23 88 1013.0
20260509185508 21 135 3.2 6.4 0.00 3.43 3.23 88 1013.1
20260509185008 21 135 3.2 6.4 0.00 3.43 3.23 88 1013.2
20260509184503 21 135 1.6 6.4 0.00 3.43 3.23 89 1013.3
20260509184002 21 135 1.6 4.8 0.00 3.43 3.23 89 1013.2
20260509183504 21 135 1.6 4.8 0.00 3.45 3.23 89 1013.3
20260509183008 21 135 1.6 4.8 0.00 3.45 3.23 89 1013.3
20260509182501 21 135 3.2 4.8 0.00 3.45 3.23 89 1013.1
20260509182005 21 135 1.6 4.8 0.00 3.45 3.23 88 1013.1
20260509181511 21 135 1.6 3.2 0.00 3.45 3.23 89 1013.2
20260509181006 21 135 1.6 3.2 0.00 3.45 3.23 89 1013.3
20260509180506 21 135 0.0 3.2 0.00 3.45 3.23 89 1013.2
20260509180015 21 135 0.0 3.2 0.00 3.45 3.23 89 1013.3
20260509175506 21 135 1.6 4.8 0.00 3.45 3.23 90 1013.4
20260509175009 20 135 0.0 4.8 0.00 3.45 3.23 90 1013.3
20260509174522 20 135 0.0 4.8 0.00 3.45 3.23 90 1013.3
20260509174007 20 135 1.6 4.8 0.00 3.48 3.23 91 1013.4
20260509173509 20 135 1.6 4.8 0.00 3.48 3.23 90 1013.5
20260509173024 20 135 1.6 6.4 0.00 3.48 3.23 90 1013.6
20260509172503 20 135 3.2 6.4 0.00 3.48 3.23 90 1013.6
20260509172003 20 135 3.2 8.0 0.00 3.48 3.23 91 1013.6
20260509171512 20 135 3.2 8.0 0.00 3.48 3.23 90 1013.8
20260509171002 20 135 3.2 6.4 0.00 3.48 3.23 90 1014.0
20260509170505 20 135 1.6 6.4 0.00 3.48 3.23 92 1014.1
20260509170014 20 135 0.0 4.8 0.00 3.48 3.23 94 1014.3
20260509165504 20 135 1.6 6.4 0.00 3.48 3.23 94 1014.6
20260509165006 20 135 1.6 6.4 0.00 3.48 3.23 96 1014.7
20260509164520 20 135 0.0 6.4 0.00 3.51 3.23 97 1014.7
20260509164011 19 135 1.6 6.4 0.00 3.51 3.23 98 1014.7
20260509163507 19 135 1.6 3.2 0.00 3.51 3.23 98 1014.6
20260509163023 19 135 0.0 1.6 0.00 3.51 3.23 98 1014.6
20260509162507 19 135 0.0 3.2 0.00 3.51 3.23 98 1014.5
20260509162008 18 135 0.0 3.2 0.00 3.51 3.23 98 1014.5
20260509161530 18 135 0.0 1.6 0.00 3.51 3.23 99 1014.5
20260509161002 18 135 0.0 1.6 0.00 3.51 3.23 98 1014.5
20260509160504 18 135 0.0 1.6 0.00 3.51 3.23 99 1014.4
20260509160017 18 135 0.0 1.6 0.00 3.51 3.23 99 1014.2
20260509155502 18 135 0.0 1.6 0.00 3.51 3.23 99 1014.1
20260509155010 18 135 0.0 1.6 0.00 3.53 3.23 99 1014.1
20260509154516 18 135 0.0 1.6 0.00 3.53 3.23 99 1014.0
20260509154005 18 135 0.0 1.6 0.00 3.53 3.23 99 1014.0
20260509153506 18 135 0.0 1.6 0.00 3.53 3.23 99 1014.2
20260509153022 18 135 0.0 1.6 0.00 3.53 3.23 99 1014.5
20260509152507 18 135 0.0 1.6 0.00 3.53 3.23 99 1014.6
20260509152008 17 135 0.0 1.6 0.00 3.53 3.23 99 1014.6
20260509151525 17 135 0.0 1.6 0.00 3.53 3.23 99 1014.6
20260509151007 17 135 0.0 1.6 0.00 3.53 3.23 99 1014.5
20260509150510 17 135 0.0 1.6 0.00 3.53 3.23 99 1014.4
20260509150027 17 135 0.0 1.6 0.00 3.53 3.23 99 1014.3
20260509145507 17 135 0.0 0.0 0.00 3.53 3.23 99 1014.3
20260509145005 17 135 0.0 1.6 0.00 3.53 3.23 99 1014.4
20260509144517 17 135 0.0 1.6 0.00 3.53 3.23 99 1014.3
20260509144005 17 135 0.0 1.6 0.00 3.53 3.23 99 1014.3
20260509143510 17 135 0.0 1.6 0.00 3.53 3.23 99 1014.3
20260509143023 17 135 0.0 0.0 0.00 3.53 3.23 99 1014.1
20260509142505 17 135 0.0 0.0 0.00 3.53 3.23 99 1014.2
20260509142008 17 135 0.0 0.0 0.00 3.53 3.23 99 1014.1
20260509141530 17 135 0.0 0.0 0.00 3.53 3.23 99 1013.9
20260509141008 17 135 0.0 0.0 0.00 3.53 3.23 99 1013.7
20260509140507 17 135 0.0 0.0 0.00 3.53 3.23 99 1013.7
20260509140025 17 135 0.0 0.0 0.00 3.53 3.23 99 1013.6
20260509135508 16 135 0.0 1.6 0.00 3.53 3.23 99 1013.3
20260509135012 16 135 0.0 1.6 0.00 3.53 3.23 99 1013.1
20260509134528 16 135 0.0 1.6 0.03 3.53 3.23 99 1012.8
20260509134009 16 135 0.0 4.8 0.05 3.53 3.23 99 1012.9
20260509133503 16 135 0.0 6.4 0.10 3.53 3.23 99 1012.7
20260509133019 16 135 1.6 8.0 0.18 3.53 3.23 99 1012.6
20260509132504 16 135 4.8 9.7 0.25 3.53 3.23 99 1012.6
20260509132007 16 135 6.4 11.3 0.36 3.53 3.23 99 1012.7
20260509131522 16 135 6.4 12.9 0.43 3.53 3.23 99 1012.7
20260509131006 16 135 9.7 12.9 0.48 3.53 3.23 99 1012.2
20260509130506 16 135 6.4 8.0 0.53 3.53 3.23 99 1012.7
20260509130023 16 135 4.8 8.0 0.58 3.53 3.23 99 1012.8
20260509125509 16 135 4.8 11.3 0.61 3.53 3.23 99 1012.7
20260509125010 16 135 6.4 11.3 0.66 3.53 3.23 99 1012.3
20260509124511 16 135 9.7 11.3 0.66 3.51 3.20 99 1012.1
20260509124003 16 135 4.8 6.4 0.66 3.48 3.17 99 1013.0
20260509123504 16 135 3.2 4.8 0.61 3.43 3.12 99 1013.7
20260509123014 16 135 1.6 3.2 0.58 3.35 3.05 99 1014.3
20260509122503 16 135 0.0 1.6 0.53 3.28 2.95 99 1014.7
20260509122007 16 135 0.0 1.6 0.46 3.17 2.87 99 1014.9
20260509121524 16 135 0.0 3.2 0.46 3.10 2.79 99 1014.8
20260509121009 16 135 1.6 3.2 0.56 3.05 2.74 99 1014.7
20260509120508 16 135 1.6 3.2 0.69 2.97 2.67 99 1014.9